Skip Page Navigation
NASA JPL Caltech
NASA Logo - Jet Propulsion Laboratory + View the NASA Portal
+ Near-Earth Object (NEO) Program
Search JPL
JPL Home Earth Solar System Stars & Galaxies Technology
JPL Solar System Dynamics
BODIES ORBITS EPHEMERIDES TOOLS PHYSICAL DATA DISCOVERY FAQ SITE MAP
JPL Small-Body Database Browser
Search: [ help ]  
20120 Ryugatake (1995 WB5)
Classification: Main-belt Asteroid          SPK-ID: 2020120
Ephemeris | Orbit Diagram | Orbital Elements | Physical Parameters | Discovery Circumstances | Close-Approach Data ]

[ show orbit diagram ]
Orbital Elements at Epoch 2457000.5 (2014-Dec-09.0) TDB
Reference: JPL 10 (heliocentric ecliptic J2000)
 Element Value Uncertainty (1-sigma)   Units 
e .1555566125515052 7.9846e-08  
a 2.630696471659587 2.066e-08 AU
q 2.221474239877025 2.0548e-07 AU
i 12.80167422927146 9.155e-06 deg
node 253.6312087805051 3.1846e-05 deg
peri 96.50911222983839 4.4431e-05 deg
M 224.9591549659467 3.1654e-05 deg
tp 2457585.111274282448
(2016-Jul-15.61127428)
0.00014018 JED
period 1558.491867320657
4.27
1.8359e-05
5.026e-08
d
yr
n .2309925432071124 2.7211e-09 deg/d
Q 3.03991870344215 2.3873e-08 AU
  Orbit Determination Parameters
   # obs. used (total)      548  
   data-arc span      6743 days (18.46 yr)  
   first obs. used      1995-11-17  
   last obs. used      2014-05-04  
   planetary ephem.      DE431  
   SB-pert. ephem.      SB431-BIG16  
   condition code      0  
   fit RMS      .59106  
   data source      ORB  
   producer      Otto Matic  
   solution date      2014-Oct-09 14:41:08  

Additional Information
 Earth MOID = 1.26032 AU 
 T_jup = 3.348 
[ show covariance matrix ]

Ephemeris | Orbit Diagram | Orbital Elements | Physical Parameters | Discovery Circumstances | Close-Approach Data ]

Physical Parameter Table
Parameter Symbol Value Units Sigma Reference Notes
absolute magnitude H 14.0 mag n/a MPO257011  

20120 Ryugatake           Discovered 1995 Nov. 24 by T. Kobayashi at Oizumi.
Ryugatake is a town in Kumamoto, on the east coast of the beautiful Amakusa-Kamishima Island. It is also the name of the mountain where Myu-i public observatory is located.
NOTE: some special characters may not display properly (any characters within {} are an attempt to place the proper accent above a character)
Reference: 20020427/MPCPages.arcLast Updated: 2003-10-02

[ show close-approach data ]
Alternate Designations
 1995 WB5 = 1998 KC66 
Ephemeris | Orbit Diagram | Orbital Elements | Physical Parameters | Discovery Circumstances | Close-Approach Data ]
ABOUT SSD CREDITS/AWARDS PRIVACY/COPYRIGHT GLOSSARY LINKS
FirstGov 2014-Oct-22 21:39 UT
(server date/time)  
NASA Home Page
Site Manager:   Donald K. Yeomans
Webmaster  Alan B. Chamberlin